sat.trackr.live / text

‹ back to catalog

BLACKJACK ACES-2

NORAD 56955 · 2023-084Z

PAYLOAD ACTIVE UNKNOWN

§ Identity

Operator
Country
US
Launch date
2023-06-12
Launch site
AFWTR
Launch vehicle
Mass (kg)
RCS (m²)

External: N2YO · Heavens-Above · Gunter

§ Orbital elements

Epoch: 2026-09-21T21:26:49.053120Z

Period
94.81 min
Inclination
97.6335°
Eccentricity
0.0001475
Mean motion
15.18851570 rev/d
Perigee alt
508.3 km
Apogee alt
510.3 km
Semi-major
6,887.4 km
B*
1.9743e-4
RAAN
41.0190°
Arg perigee
59.5572°
Mean anomaly
300.5808°
Rev number
18,185

§ Raw data

BLACKJACK ACES-21 56955U 23084Z   26264.89362330  .00004043  00000+0  19743-3 0  99982 56955  97.6335  41.0190 0001475  59.5572 300.5808 15.18851570181858

JSON: /api/v1/satellites/56955 · /tle

For live sub-satellite position, see the globe view (requires WebGL).

§ Visibility from observer

Set your observer location to see the next 7 days of passes ≥ 10°. The values pass through the URL so the page stays shareable.

No JS? Fill the form by hand. The geolocation button needs JavaScript.

§ Radio — SatNOGS DB

ModeDescriptionDownlinkUplink
BPSK S-band telemetry 2.265 GHz

1 transmitter · refreshed weekly from db.satnogs.org